Find SCH-619

NORAD ID: 67271 Int'l Des: NNA 2025-313 Owner: STTS Country: RU operational
LEOCIRCULARRETROGRADESSO

当前视图

正在加载3D地球...

About SCH-619

SCH-619 (NORAD 67271) is a satellite launched Dec 28, 2025 by STTS of RU. It operates in LEO, CIRCULAR, RETROGRADE, SSO orbit with a mass of 3.00 kg.

即将过境

Passes for default location (London). Set your location on the main map for personalized predictions.

高度历史

Loading altitude history...

两行轨道根数

1 67271U 25313Z 26195.18396816 .00002200 00000-0 99832-4 0 9991
2 67271 97.3934 269.1595 0013224 266.1216 93.8508 15.21795548 30040
Epoch: Jul 14, 2026 • Age: 11 hours

当前状态

高度 504.8 km
远地点 / 近地点 N/A
速度 7.61 km/s
星下点 -11.93°S, 107.52°E
发射日期 Dec 28, 2025
运行时间 0.5 years
类型 other

技术详情

分类 Payload
质量 3.00 kg
干质量 3.00 kg
总质量 3.00 kg
长度 0.30 m
直径 0.10 m
跨度 0.30 m
形状 Box
制造商 STTS
平台类型 Cubesat 3U
阶段状态 In Orbit
所有者/国家 STTS/RU

Most Searched